Time,TemperatureF,DewpointF,PressureIn,WindDirection,WindDirectionDegrees,WindSpeedMPH,WindSpeedGustMPH,Humidity,HourlyPrecipIn,Conditions,Clouds,dailyrainin,SoftwareType,DateUTC
2013-07-19 00:03:00,78.9,76.0,30.09,WSW,248,0.0,-999.0,89,-99.99,,,0.00,weatherlink.com 1.10,2013-07-19 04:03:00,
2013-07-19 00:04:00,78.9,76.0,30.09,WSW,248,0.0,-999.0,89,-99.99,,,0.00,weatherlink.com 1.10,2013-07-19 04:04:00,
2013-07-19 00:19:00,78.8,75.0,30.08,WSW,248,0.0,-999.0,89,-99.99,,,0.00,weatherlink.com 1.10,2013-07-19 04:19:00,
2013-07-19 00:34:00,78.7,75.0,30.09,WSW,248,0.0,-999.0,89,-99.99,,,0.00,weatherlink.com 1.10,2013-07-19 04:34:00,
2013-07-19 01:00:00,78.7,75.0,30.09,WSW,248,0.0,-999.0,89,-99.99,,,0.00,weatherlink.com 1.10,2013-07-19 05:00:00,
2013-07-19 01:04:00,78.6,75.0,30.08,WSW,248,0.0,-999.0,89,-99.99,,,0.00,weatherlink.com 1.10,2013-07-19 05:04:00,
2013-07-19 01:19:00,78.4,75.0,30.08,WSW,248,0.0,-999.0,89,-99.99,,,0.00,weatherlink.com 1.10,2013-07-19 05:19:00,
2013-07-19 01:34:00,78.3,75.0,30.08,WSW,248,0.0,-999.0,89,-99.99,,,0.00,weatherlink.com 1.10,2013-07-19 05:34:00,
2013-07-19 02:00:00,78.3,75.0,30.08,WSW,248,0.0,-999.0,89,-99.99,,,0.00,weatherlink.com 1.10,2013-07-19 06:00:00,
2013-07-19 02:19:00,77.8,75.0,30.07,WSW,248,0.0,-999.0,90,-99.99,,,0.00,weatherlink.com 1.10,2013-07-19 06:19:00,
2013-07-19 02:34:00,77.6,75.0,30.06,WSW,248,0.0,-999.0,90,-99.99,,,0.00,weatherlink.com 1.10,2013-07-19 06:34:00,
2013-07-19 03:00:00,77.6,75.0,30.06,WSW,248,0.0,-999.0,90,-99.99,,,0.00,weatherlink.com 1.10,2013-07-19 07:00:00,
2013-07-19 03:19:00,76.9,75.0,30.06,WSW,248,0.0,-999.0,92,-99.99,,,0.00,weatherlink.com 1.10,2013-07-19 07:19:00,
2013-07-19 03:34:00,76.8,74.0,30.05,WSW,248,0.0,-999.0,92,-99.99,,,0.00,weatherlink.com 1.10,2013-07-19 07:34:00,
2013-07-19 04:02:00,76.8,74.0,30.05,WSW,248,0.0,-999.0,92,-99.99,,,0.00,weatherlink.com 1.10,2013-07-19 08:02:00,
2013-07-19 04:19:00,76.6,75.0,30.05,WSW,248,0.0,-999.0,93,-99.99,,,0.00,weatherlink.com 1.10,2013-07-19 08:19:00,
2013-07-19 04:34:00,76.4,74.0,30.05,WSW,248,0.0,-999.0,93,-99.99,,,0.00,weatherlink.com 1.10,2013-07-19 08:34:00,
2013-07-19 05:00:00,76.2,74.0,30.05,WSW,248,0.0,-999.0,93,-99.99,,,0.00,weatherlink.com 1.10,2013-07-19 09:00:00,
2013-07-19 05:19:00,76.0,74.0,30.05,WSW,248,0.0,-999.0,93,-99.99,,,0.00,weatherlink.com 1.10,2013-07-19 09:19:00,
2013-07-19 05:34:00,75.9,74.0,30.06,WSW,248,0.0,-999.0,94,-99.99,,,0.00,weatherlink.com 1.10,2013-07-19 09:34:00,
2013-07-19 06:00:00,75.8,74.0,30.06,WSW,248,0.0,-999.0,94,-99.99,,,0.00,weatherlink.com 1.10,2013-07-19 10:00:00,
2013-07-19 06:19:00,75.6,74.0,30.07,WSW,248,0.0,-999.0,94,-99.99,,,0.00,weatherlink.com 1.10,2013-07-19 10:19:00,
2013-07-19 06:34:00,75.6,74.0,30.07,WSW,248,0.0,-999.0,94,-99.99,,,0.00,weatherlink.com 1.10,2013-07-19 10:34:00,
2013-07-19 07:02:00,75.6,74.0,30.07,WSW,248,0.0,-999.0,94,-99.99,,,0.00,weatherlink.com 1.10,2013-07-19 11:02:00,
2013-07-19 07:19:00,75.9,74.0,30.07,WSW,248,0.0,-999.0,95,-99.99,,,0.00,weatherlink.com 1.10,2013-07-19 11:19:00,
2013-07-19 07:34:00,76.1,74.0,30.07,WSW,248,0.0,-999.0,94,-99.99,,,0.00,weatherlink.com 1.10,2013-07-19 11:34:00,
2013-07-19 08:00:00,76.2,74.0,30.07,WSW,248,0.0,-999.0,94,-99.99,,,0.00,weatherlink.com 1.10,2013-07-19 12:00:00,
2013-07-19 08:19:00,77.1,75.0,30.08,WSW,248,0.0,-999.0,93,-99.99,,,0.00,weatherlink.com 1.10,2013-07-19 12:19:00,
2013-07-19 08:34:00,77.6,75.0,30.09,WSW,248,0.0,-999.0,92,-99.99,,,0.00,weatherlink.com 1.10,2013-07-19 12:34:00,
2013-07-19 09:00:00,77.6,75.0,30.09,WSW,248,0.0,-999.0,92,-99.99,,,0.00,weatherlink.com 1.10,2013-07-19 13:00:00,
2013-07-19 09:19:00,79.2,76.0,30.09,WSW,248,0.0,-999.0,90,-99.99,,,0.00,weatherlink.com 1.10,2013-07-19 13:19:00,
2013-07-19 09:34:00,79.8,77.0,30.08,WSW,248,0.0,-999.0,90,-99.99,,,0.00,weatherlink.com 1.10,2013-07-19 13:34:00,
2013-07-19 10:00:00,79.8,77.0,30.09,WSW,248,0.0,-999.0,90,-99.99,,,0.00,weatherlink.com 1.10,2013-07-19 14:00:00,
2013-07-19 10:19:00,81.7,77.0,30.08,WSW,247,0.0,-999.0,85,-99.99,,,0.00,weatherlink.com 1.10,2013-07-19 14:19:00,
2013-07-19 10:34:00,82.3,77.0,30.08,East,85,0.0,-999.0,85,-99.99,,,0.00,weatherlink.com 1.10,2013-07-19 14:34:00,
2013-07-19 11:00:00,82.4,78.0,30.08,East,85,0.0,-999.0,85,-99.99,,,0.00,weatherlink.com 1.10,2013-07-19 15:00:00,
2013-07-19 11:19:00,83.9,78.0,30.08,East,85,0.0,-999.0,82,-99.99,,,0.00,weatherlink.com 1.10,2013-07-19 15:19:00,
2013-07-19 11:34:00,84.1,77.0,30.08,East,85,0.0,-999.0,80,-99.99,,,0.00,weatherlink.com 1.10,2013-07-19 15:34:00,
2013-07-19 12:02:00,84.1,78.0,30.08,East,85,0.0,-999.0,81,-99.99,,,0.00,weatherlink.com 1.10,2013-07-19 16:02:00,
2013-07-19 12:19:00,85.5,78.0,30.07,East,86,0.0,-999.0,79,-99.99,,,0.00,weatherlink.com 1.10,2013-07-19 16:19:00,
2013-07-19 12:34:00,85.3,78.0,30.07,East,86,0.0,-999.0,78,-99.99,,,0.00,weatherlink.com 1.10,2013-07-19 16:34:00,
2013-07-19 13:00:00,85.3,78.0,30.07,East,86,0.0,-999.0,78,-99.99,,,0.00,weatherlink.com 1.10,2013-07-19 17:00:00,
2013-07-19 13:19:00,86.3,78.0,30.06,ENE,67,0.0,-999.0,77,-99.99,,,0.00,weatherlink.com 1.10,2013-07-19 17:19:00,
2013-07-19 13:34:00,87.2,77.0,30.05,ENE,76,0.0,-999.0,71,-99.99,,,0.00,weatherlink.com 1.10,2013-07-19 17:34:00,
2013-07-19 14:02:00,87.2,77.0,30.05,ENE,76,0.0,-999.0,71,-99.99,,,0.00,weatherlink.com 1.10,2013-07-19 18:02:00,
2013-07-19 14:19:00,88.4,76.0,30.04,ENE,77,1.0,-999.0,67,-99.99,,,0.00,weatherlink.com 1.10,2013-07-19 18:19:00,
2013-07-19 14:34:00,88.4,76.0,30.03,East,83,0.0,-999.0,67,-99.99,,,0.00,weatherlink.com 1.10,2013-07-19 18:34:00,
2013-07-19 15:00:00,88.4,77.0,30.03,East,83,0.0,-999.0,68,-99.99,,,0.00,weatherlink.com 1.10,2013-07-19 19:00:00,
2013-07-19 15:19:00,87.8,76.0,30.01,East,83,2.0,-999.0,69,-99.99,,,0.00,weatherlink.com 1.10,2013-07-19 19:19:00,
2013-07-19 15:34:00,88.6,77.0,30.01,East,86,0.0,-999.0,68,-99.99,,,0.00,weatherlink.com 1.10,2013-07-19 19:34:00,
2013-07-19 16:02:00,88.6,77.0,30.01,East,86,1.0,-999.0,68,-99.99,,,0.00,weatherlink.com 1.10,2013-07-19 20:02:00,
2013-07-19 16:19:00,88.6,78.0,29.99,ENE,69,0.0,-999.0,70,-99.99,,,0.00,weatherlink.com 1.10,2013-07-19 20:19:00,
2013-07-19 17:00:00,88.4,77.0,29.98,ENE,69,0.0,-999.0,69,-99.99,,,0.00,weatherlink.com 1.10,2013-07-19 21:00:00,
2013-07-19 17:19:00,87.8,76.0,29.98,ENE,74,0.0,-999.0,69,-99.99,,,0.00,weatherlink.com 1.10,2013-07-19 21:19:00,
2013-07-19 18:00:00,87.7,76.0,29.98,ENE,74,0.0,-999.0,69,-99.99,,,0.00,weatherlink.com 1.10,2013-07-19 22:00:00,
2013-07-19 18:19:00,87.7,76.0,29.98,ENE,74,0.0,-999.0,69,-99.99,,,0.00,weatherlink.com 1.10,2013-07-19 22:19:00,
2013-07-19 18:34:00,87.4,76.0,29.97,ENE,74,0.0,-999.0,69,-99.99,,,0.00,weatherlink.com 1.10,2013-07-19 22:34:00,
2013-07-19 18:59:00,87.4,76.0,29.97,ENE,74,0.0,-999.0,69,-99.99,,,0.00,weatherlink.com 1.10,2013-07-19 22:59:00,
2013-07-19 19:18:00,86.6,76.0,29.98,ENE,74,0.0,-999.0,70,-99.99,,,0.00,weatherlink.com 1.10,2013-07-19 23:18:00,
2013-07-19 19:33:00,86.3,76.0,29.98,ENE,74,0.0,-999.0,71,-99.99,,,0.00,weatherlink.com 1.10,2013-07-19 23:33:00,
2013-07-19 20:01:00,86.3,76.0,29.98,ENE,74,0.0,-999.0,71,-99.99,,,0.00,weatherlink.com 1.10,2013-07-20 00:01:00,
2013-07-19 20:18:00,85.0,75.0,29.98,ENE,74,0.0,-999.0,73,-99.99,,,0.00,weatherlink.com 1.10,2013-07-20 00:18:00,
2013-07-19 20:33:00,84.4,76.0,29.97,ENE,74,0.0,-999.0,75,-99.99,,,0.00,weatherlink.com 1.10,2013-07-20 00:33:00,
2013-07-19 21:01:00,84.3,76.0,29.97,ENE,74,0.0,-999.0,75,-99.99,,,0.00,weatherlink.com 1.10,2013-07-20 01:01:00,
2013-07-19 21:18:00,82.8,75.0,29.98,ENE,74,0.0,-999.0,77,-99.99,,,0.00,weatherlink.com 1.10,2013-07-20 01:18:00,
2013-07-19 21:33:00,82.5,75.0,29.99,ENE,74,0.0,-999.0,77,-99.99,,,0.00,weatherlink.com 1.10,2013-07-20 01:33:00,
2013-07-19 21:59:00,82.5,75.0,29.99,ENE,74,0.0,-999.0,77,-99.99,,,0.00,weatherlink.com 1.10,2013-07-20 01:59:00,
2013-07-19 22:18:00,81.4,74.0,30.01,ENE,74,0.0,-999.0,78,-99.99,,,0.00,weatherlink.com 1.10,2013-07-20 02:18:00,
2013-07-19 22:33:00,81.2,74.0,30.01,ENE,74,0.0,-999.0,79,-99.99,,,0.00,weatherlink.com 1.10,2013-07-20 02:33:00,
2013-07-19 22:59:00,81.2,74.0,30.01,ENE,74,0.0,-999.0,79,-99.99,,,0.00,weatherlink.com 1.10,2013-07-20 02:59:00,
2013-07-19 23:04:00,80.4,75.0,30.02,ENE,74,0.0,-999.0,82,-99.99,,,0.00,weatherlink.com 1.10,2013-07-20 03:04:00,
2013-07-19 23:19:00,80.0,74.0,30.02,ENE,74,0.0,-999.0,83,-99.99,,,0.00,weatherlink.com 1.10,2013-07-20 03:19:00,
2013-07-19 23:59:00,79.7,75.0,30.02,ENE,74,0.0,-999.0,84,-99.99,,,0.00,weatherlink.com 1.10,2013-07-20 03:59:00,